Weather History for Niagara Falls, NY

Change the Weather History Date:

Tuesday, November 20, 2012

  Actual Average Record
Temperature  
Mean Temperature 42 °F -  
Max Temperature 51 °F 44 °F 68 °F (1991)
Min Temperature 30 °F 30 °F 18 °F (2014)
Degree Days  
Heating Degree Days 24    
Moisture  
Dew Point 33 °F    
Average Humidity 82    
Maximum Humidity 93    
Minimum Humidity 52    
Precipitation  
Precipitation 0.00 in - - ()
Sea Level Pressure  
Sea Level Pressure 30.19 in    
Wind  
Wind Speed 1 mph (NE)    
Max Wind Speed 6 mph    
Max Gust Speed -    
Visibility 6 miles    
Events Fog    
Averages and records for this station are not official NWS values.
T = Trace of Precipitation, MM = Missing Value Source: NWS Daily Summary

Daily Weather History Graph

Daily Weather History Graph

Search for Another Location

Airport:

Trip Planner

Search our weather history database for the weather conditions in past years. The results will help you decide how hot, cold, wet, or windy it might be!

Date:

Astronomy

Nov. 20, 2012 Rise Set
Actual Time 7:15 AM EST 4:47 PM EST
Civil Twilight 6:44 AM EST 5:18 PM EST
Nautical Twilight 6:09 AM EST 5:53 PM EST
Astronomical Twilight 5:35 AM EST 6:26 PM EST
Moon 12:43 PM EST (11/20) No Moon Set
Length of Visible Light 10h 34m
Length of Day
9h 32m
Waxing Crescent, 51% of the Moon is Illuminated
Nov 20
Waxing Crescent
Nov 28
Full
Dec 6
Last Quarter
Dec 13
New
Dec 20
First Quarter

Hourly Weather History & Observations

Time (EST) Temp. Windchill Dew Point Humidity Pressure Visibility Wind Dir Wind Speed Gust Speed Precip Events Conditions
12:53 AM 36.0 °F - 32.0 °F 86% 30.24 in 5.0 mi Calm Calm - N/A   Clear
1:53 AM 35.1 °F - 32.0 °F 89% 30.22 in 5.0 mi Calm Calm - N/A   Clear
2:53 AM 36.0 °F - 32.0 °F 86% 30.22 in 5.0 mi Calm Calm - N/A   Clear
3:53 AM 35.1 °F - 32.0 °F 89% 30.22 in 4.0 mi Calm Calm - N/A   Clear
4:53 AM 33.1 °F - 30.0 °F 89% 30.22 in 3.0 mi Calm Calm - N/A   Clear
5:53 AM 32.0 °F - 28.9 °F 88% 30.21 in 4.0 mi Calm Calm - N/A   Clear
6:53 AM 33.1 °F - 30.0 °F 89% 30.22 in 4.0 mi Calm Calm - N/A   Clear
7:02 AM 33.8 °F - 30.2 °F 87% 30.18 in 3.0 mi Calm Calm - N/A   Mostly Cloudy
7:53 AM 32.0 °F 27.5 °F 30.0 °F 92% 30.22 in 3.0 mi NE 4.6 mph - N/A   Mostly Cloudy
8:53 AM 36.0 °F - 34.0 °F 93% 30.22 in 4.0 mi Calm Calm - N/A   Mostly Cloudy
9:53 AM 41.0 °F - 35.1 °F 79% 30.21 in 6.0 mi Calm Calm - N/A   Haze
10:53 AM 46.0 °F 44.8 °F 35.1 °F 66% 30.20 in 6.0 mi ESE 3.5 mph - N/A   Haze
11:53 AM 48.9 °F - 35.1 °F 59% 30.17 in 9.0 mi East 4.6 mph - N/A   Overcast
12:53 PM 51.1 °F - 34.0 °F 52% 30.15 in 10.0 mi Calm Calm - N/A   Mostly Cloudy
2:53 PM 51.1 °F - 34.0 °F 52% 30.13 in 10.0 mi ENE 3.5 mph - N/A   Mostly Cloudy
3:53 PM 51.1 °F - 35.1 °F 54% 30.14 in 9.0 mi ENE 3.5 mph - N/A   Overcast
4:53 PM 45.0 °F 41.8 °F 39.0 °F 80% 30.16 in 10.0 mi North 5.8 mph - N/A   Mostly Cloudy
5:53 PM 42.1 °F 40.2 °F 37.0 °F 82% 30.18 in 10.0 mi NNW 3.5 mph - N/A   Mostly Cloudy
6:53 PM 41.0 °F 38.0 °F 37.0 °F 86% 30.19 in 10.0 mi NNW 4.6 mph - N/A   Overcast
7:53 PM 39.9 °F 35.8 °F 36.0 °F 86% 30.19 in 10.0 mi NE 5.8 mph - N/A   Overcast
8:53 PM 39.9 °F 36.7 °F 36.0 °F 86% 30.19 in 10.0 mi East 4.6 mph - N/A   Overcast
9:53 PM 36.0 °F - 33.1 °F 89% 30.19 in 10.0 mi Calm Calm - N/A   Overcast
10:53 PM 34.0 °F - 32.0 °F 92% 30.18 in 10.0 mi Calm Calm - N/A   Scattered Clouds
11:10 PM 33.8 °F - 32.0 °F 93% 30.15 in 2.5 mi North - - N/A   Clear
11:28 PM 33.8 °F - 30.2 °F 87% 30.16 in 3.0 mi North - - N/A   Clear
11:35 PM 33.8 °F - 30.2 °F 87% 30.16 in 1.8 mi North - - N/A   Clear
11:38 PM 33.8 °F - 30.2 °F 87% 30.15 in 1.0 mi North - - N/A   Clear
11:48 PM 32.0 °F - 28.4 °F 87% 30.15 in 0.5 mi North - - N/A Fog Fog
11:53 PM 30.9 °F - 28.0 °F 89% 30.19 in 0.5 mi North - - N/A Fog Light Freezing Fog